Location: Lanzahita
(40.2050°N, 4.9355°W)
Time: 23:12:11
(UTC+00:00)

Daily predictions for brighter satellites

Satellite Brightness Start Highest point End
(mag) Time Altitude Azimuth Time Altitude Azimuth Time Altitude Azimuth
Aureole 3 Rocket 3.7 17:15:57 10° NNW 17:19:58 51° W 17:23:09 10° S
SJ-11-01 4.3 17:18:09 10° SSE 17:22:47 87° ENE 17:27:28 10° NNW
Lacrosse 5 2.7 17:22:17 10° S 17:26:50 35° SE 17:31:24 10° ENE
Cosmos-2242 3.4 17:24:40 10° SSE 17:28:45 42° E 17:32:50 10° NNE
Cosmos 2151 3.4 17:26:41 10° NNW 17:30:56 70° W 17:35:09 10° S
Cosmos 2082 4.4 17:25:39 10° SW 17:31:08 55° WNW 17:36:41 10° NNE
Cosmos 2058 Rocket 3.9 17:27:21 10° SSW 17:31:43 56° W 17:36:03 10° N
CZ-2C R/B 3.1 17:32:15 10° SW 17:33:22 12° SSW 17:34:27 10° S
Lacrosse 4 Rocket 2.2 17:30:13 10° N 17:34:06 31° NE 17:37:52 10° ESE
COSMO-SKYMED 1 3.9 17:31:02 10° NE 17:34:17 20° E 17:37:31 10° SE
CZ-2D R/B 3.7 17:32:58 10° S 17:36:36 63° WSW 17:40:15 10° NNW
APEX 2.6 17:33:55 10° SSW 17:36:58 58° ESE 17:39:45 10° NNE
Cosmos 2344 3.6 17:31:12 10° SSW 17:39:02 64° ESE 17:46:13 10° NE
Cosmos 2221 4.2 17:37:28 10° ESE 17:39:33 14° E 17:41:02 12° ENE
Cosmos 1812 2.7 17:38:17 10° S 17:41:52 55° E 17:45:28 10° NNE
Cosmos 1818 3.7 17:37:45 10° SSW 17:43:03 61° ESE 17:48:27 10° NE
USA 234 3.3 17:38:02 10° NE 17:44:34 73° SE 17:51:06 10° SW
USA 276 3.7 17:44:41 10° WNW 17:46:25 17° NNW 17:48:03 11° NNE
CZ-2C R/B 3.2 17:44:40 10° S 17:48:10 60° W 17:51:44 10° NNW
AQUARIUS 4.1 17:44:00 10° SSE 17:48:23 65° ENE 17:52:50 10° N
ERS-2 4.5 17:49:45 10° SSW 17:52:05 22° W 17:54:27 10° NW
Tiangong 1.5 17:52:20 10° SW 17:52:43 10° SW 17:53:07 10° SSW
H-2A R/B 3.2 17:53:42 10° SW 17:55:34 17° S 17:58:45 10° SE
[s.n.58448] 2.3 17:54:08 10° WNW 17:56:42 85° SSW 17:58:25 19° ESE
Cosmos 2263 Rocket 3.4 17:52:08 10° SW 17:57:18 39° WNW 18:02:31 10° N
Cosmos 1844 Rocket 3.1 17:52:08 10° S 17:57:18 41° ESE 18:02:02 12° NE
USA 307 2.6 17:55:02 10° NW 17:58:51 59° NE 18:02:21 11° ESE
[s.n.58449] 2.2 17:56:38 10° WNW 17:59:09 81° SSW 18:00:40 21° ESE
CORIOLIS 4.3 17:54:09 10° S 17:59:29 80° WSW 18:04:53 10° NNW
[s.n.58459] 2.3 17:57:58 10° WNW 18:00:34 80° SSW 18:02:07 21° ESE
[s.n.58458] 2.4 17:58:41 10° WNW 18:01:16 79° SSW 18:02:49 21° ESE
[s.n.58456] 2.4 17:59:30 10° WNW 18:02:06 78° SSW 18:03:37 22° ESE
[s.n.58447] 2.3 17:59:44 10° WNW 18:02:18 77° SSW 18:03:44 23° ESE
[s.n.58457] 2.4 18:00:16 10° WNW 18:02:53 77° SSW 18:04:21 22° ESE
Cosmos 1092 Rocket 4.1 17:57:02 10° SSE 18:02:55 51° E 18:08:49 10° NNE
Nadezhda 4 Rocket 4.0 17:56:47 10° S 18:02:56 83° W 18:09:05 10° N
[s.n.58455] 2.4 18:01:03 10° WNW 18:03:40 76° SSW 18:05:06 23° ESE
Cosmos 1933 3.7 18:00:38 10° SSE 18:04:23 42° E 18:07:56 11° NNE
[s.n.58454] 2.4 18:01:50 10° WNW 18:04:26 75° SSW 18:05:51 23° ESE
[s.n.58453] 2.5 18:02:37 10° WNW 18:05:14 74° SSW 18:06:36 24° ESE
Cosmos 2227 4.3 18:00:04 10° SSW 18:05:50 80° WNW 18:11:37 10° NNE
[s.n.58452] 2.5 18:03:20 10° WNW 18:05:57 73° SSW 18:07:18 25° ESE
[s.n.58451] 2.5 18:04:08 10° WNW 18:06:45 72° SSW 18:08:03 25° ESE
[s.n.58450] 2.5 18:04:54 10° WNW 18:07:31 71° SSW 18:08:47 26° ESE
ADEOS 4.2 18:04:18 10° SE 18:08:54 33° ENE 18:13:32 10° N
[s.n.58446] 2.6 18:07:13 10° WNW 18:09:50 68° SSW 18:11:01 28° SE
[s.n.58445] 2.6 18:08:01 10° WNW 18:10:39 67° SSW 18:11:48 28° SE
Cosmos 1666 4.2 18:07:26 10° NNW 18:10:41 35° W 18:13:56 10° SSW
Cosmos 1140 Rocket 3.4 18:05:38 10° NNW 18:10:50 84° ENE 18:15:57 10° SSE
[s.n.58444] 2.6 18:08:48 10° WNW 18:11:25 66° SSW 18:12:33 29° SE
[s.n.58443] 2.6 18:09:34 10° WNW 18:12:11 66° SSW 18:13:16 30° SE
Meteor 1-20 Rocket 4.2 18:06:36 10° N 18:12:13 87° E 18:17:55 10° S
Cosmos 1624 Rocket 4.4 18:07:35 10° S 18:12:25 40° ESE 18:15:39 19° NE
[s.n.58442] 2.7 18:10:24 10° WNW 18:13:01 65° SSW 18:14:05 31° SE
[s.n.58441] 2.7 18:11:13 10° WNW 18:13:50 64° SSW 18:14:52 31° SE
[s.n.58440] 2.7 18:11:56 10° WNW 18:14:34 63° SSW 18:15:33 32° SE
BREEZE-M DEB (TANK) 3.6 18:13:59 10° NW 18:15:04 13° N 18:15:04 13° N
Meteor 1-31 Rocket 3.6 18:11:44 10° S 18:15:19 49° W 18:18:56 10° NNW
[s.n.58439] 2.7 18:12:45 10° WNW 18:15:23 62° SSW 18:16:20 33° SE
[s.n.58437] 2.8 18:13:32 10° WNW 18:16:09 61° SSW 18:17:05 33° SE
[s.n.58438] 2.8 18:14:18 10° WNW 18:16:56 60° SSW 18:17:50 34° SE
CBERS 1 LM4 rocket 4.3 18:13:55 10° SSE 18:18:39 61° ENE 18:23:19 10° N
USA 306 2.8 18:19:38 10° WNW 18:21:36 33° SW 18:22:14 26° S
SKYMED 2 3.5 18:18:13 10° NNE 18:22:34 70° E 18:26:53 10° S
Cosmos 1603 3.6 18:17:16 10° NNW 18:22:58 74° ENE 18:28:35 10° SSE
Cosmos 192 4.2 18:19:58 10° SSW 18:24:50 75° ESE 18:28:35 17° NNE
SL-08 R/B 3.3 18:25:44 18° NNE 18:29:00 56° ESE 18:33:34 10° S
USA 305 2.4 18:26:10 10° NW 18:30:02 88° NE 18:31:45 31° SE
Meteor 2-17 Rocket 4.4 18:25:19 10° S 18:31:27 87° E 18:37:36 10° N
Cosmos 1782 3.0 18:30:37 10° SSW 18:34:29 67° W 18:38:16 11° N
RESURS DK-1 4.5 18:31:13 10° N 18:31:56 13° N 18:31:56 13° N
CZ-4B R/B 3.7 18:30:48 10° S 18:35:53 72° WSW 18:40:52 10° NNW
SL-8 R/B 3.7 18:31:34 10° WNW 18:36:22 81° SSW 18:38:57 27° SE
Cosmos 1515 4.4 18:34:42 10° SSE 18:37:03 34° SE 18:37:03 34° SE
Helios 1A 4.0 18:36:15 10° N 18:40:12 44° WNW 18:44:07 10° SW
Cosmos 676 Rocket 4.5 18:35:21 10° N 18:40:05 37° ENE 18:40:05 37° ENE
NOAA 6 4.1 18:39:08 10° S 18:44:16 79° WSW 18:49:25 10° NNW
Cosmos 1943 4.2 18:41:17 10° NW 18:46:40 48° WSW 18:52:03 10° S
EO 1 Delta rocket 4.4 18:40:25 10° SSE 18:47:23 64° ENE 18:52:51 10° N
JB-3 4.3 18:46:17 33° N 18:47:53 78° WNW 18:51:40 10° SSW
CZ-4B DEB 4.3 18:53:04 45° E 18:54:00 49° ENE 18:59:20 10° N
ISS -1.2 18:52:43 10° W 18:55:15 20° SW 18:57:36 11° S
ATLAS 2AS CENTAUR R/B 2.8 18:48:42 10° NNW 18:55:21 50° NE 18:56:38 44° E
ATLAS CENTAUR R/B 3.6 18:50:12 10° NW 18:55:28 67° SW 19:05:48 10° SSE
Cosmos 407 Rocket 4.3 18:51:18 10° NNW 18:56:15 51° WSW 19:01:11 10° S
Cosmos 1241 Rocket 4.4 18:51:09 10° SSW 18:57:34 88° WNW 19:00:35 34° NNE
Radarsat Rocket 4.3 18:54:06 10° S 18:59:50 65° WSW 19:05:49 10° NNW
SL-4 R/B 4.1 18:57:31 10° S 18:58:06 13° S 18:58:06 13° S
Cosmos 220 Rocket 3.9 18:59:44 10° NNW 19:04:03 79° WSW 19:04:31 68° S
Cosmos 2056 Rocket 3.9 19:00:54 10° SSW 19:06:13 64° WNW 19:09:06 28° N
Cosmos 1844 4.2 19:03:30 10° SW 19:09:11 58° WNW 19:12:19 27° N
Lacrosse 5 2.8 19:04:58 10° WSW 19:09:44 41° NW 19:10:56 35° N
COSMOS 2455 2.7 19:03:50 10° SSW 19:09:46 66° ESE 19:10:14 64° E
COSMO-SKYMED 1 4.1 19:06:43 11° N 19:10:30 34° WNW 19:14:24 10° SW
Cosmos 1954 Rocket 3.8 19:05:47 10° NNW 19:11:03 85° ENE 19:11:51 65° SSE
Timation 2 Rocket 4.4 19:06:23 10° SW 19:12:12 54° WNW 19:15:41 24° N
Lacrosse 4 Rocket 3.8 19:08:55 10° NW 19:12:19 23° WSW 19:15:39 10° SSW
Cosmos 2221 3.5 19:12:27 10° SSW 19:16:29 44° W 19:17:46 34° NW
SME Rocket 4.1 19:17:19 10° SSE 19:22:31 84° WSW 19:30:36 10° NNW
Cosmos 1553 Rocket 4.1 19:20:29 10° N 19:26:46 76° W 19:32:56 10° S
USA 234 4.2 19:24:56 29° NNE 19:27:16 38° NNW 19:33:11 10° W
Meteor 2-6 Rocket 4.3 19:27:30 10° S 19:33:26 83° W 19:33:29 83° WNW
Cosmos 1844 Rocket 4.4 19:36:34 10° WSW 19:41:17 28° NW 19:43:44 20° NNW
ATLAS 2AS CENTAUR R/B 4.3 20:40:06 10° NW 20:44:08 28° W 20:44:08 28° W
